Location: Christchurch
(43.5330°S, 172.6330°E)
Time: 10:02:21
(UTC+13:00)

Cosmos 1242 Rocket - Pass Details

Date: 24 January 2019
Orbit: 449 x 490 km, 81.2° (Epoch: 14 February)

Event Time Altitude Azimuth Distance (km) Brightness Sun altitude
Rises 22:52:44 0° 197° (SSW) 2,609 7.5 -16.3°
Reaches altitude 10° 22:54:56 10° 203° (SSW) 1,720 6.5 -16.5°
Maximum altitude 22:58:32 43° 275° (W) 712 3.6 -17.0°
Enters shadow 23:00:51 19° 339° (NNW) 1,233 4.3 -17.2°
